#timestamp,LO_Frequency,Hit,StdDev 
1505300415.7,286047000.2,P,0.1
1505300435.5,286046999.8,P,0.2
1505300455.4,286047002.2,P,0.9
1505300475.2,286047001.5,N,0.9
1505300495.1,286047002.1,N,1.0
1505300496.0,286047002.1,N,1.0
1505300515.8,286047002.1,N,0.9
1505300535.6,286047002.6,N,1.0
1505300555.5,286046999.7,N,1.1
1505300575.3,286047001.5,N,1.0
1505300595.2,286047004.4,Y,0.0
1505300615.9,286047002.3,P,0.5
1505300635.7,286047002.2,P,0.5
1505300655.6,286047002.4,P,0.4
1505300675.4,286047001.6,Y,0.0
1505300695.2,286047000.5,P,0.8
1505300715.1,286047000.9,N,0.7
1505300716.0,286047000.9,N,0.6
1505300735.8,286046998.4,N,1.2
1505300755.7,286046999.3,N,1.2
1505300775.5,286046998.1,N,1.3
1505300795.4,286046998.4,N,1.4
1505300815.2,286046999.0,N,1.3
1505300835.0,286046998.1,N,1.3
1505300835.9,286046998.1,N,1.3
1505300855.8,286047001.1,N,1.4
1505300875.6,286047001.1,N,1.4
1505300895.5,286046999.3,N,1.3
1505300915.3,286046999.3,N,1.3
1505300935.1,286046999.0,N,1.3
1505300955.9,286046998.6,N,1.2
1505300975.7,286047001.2,N,1.3
1505300995.5,286046998.3,N,1.3
1505301045.4,286046998.5,E,nan
1505301055.3,286047000.2,N,0.0
1505301075.2,286047000.4,P,0.1
1505301095.0,286047000.2,N,0.1
1505301095.9,286047000.2,N,0.1
1505301115.8,286047002.5,Y,0.0
1505301135.6,286047002.7,P,1.2
1505301155.4,286047000.0,N,1.2
1505301175.3,286047002.8,N,1.3
1505301195.1,286047000.9,N,1.2
1505301215.9,286047000.2,N,1.2
1505301235.7,286047002.8,N,1.2
1505301255.5,286046999.9,N,1.2
1505301275.4,286047002.0,N,1.2
1505301295.2,286047002.6,N,1.2
1505301315.1,286047000.2,N,1.2
1505301316.0,286047000.2,N,1.2
1505301335.8,286046999.8,N,1.2
1505301355.6,286047001.6,N,1.2
1505301375.5,286047002.8,N,1.2
1505301395.3,286047002.5,N,1.2
1505301415.1,286047002.2,N,1.2
1505301435.9,286047002.6,N,1.2
1505301455.7,286047001.3,N,1.2
1505301475.6,286047001.6,N,1.1
1505301495.4,286047004.0,Y,0.0
1505301515.2,286046999.8,P,0.8
1505301535.1,286046999.8,N,0.8
1505301536.0,286046999.8,N,0.7
1505301555.8,286047002.3,Y,0.0
1505301575.7,286047002.5,P,1.1
1505301595.5,286047002.0,N,1.0
1505301615.3,286047001.6,N,0.9
1505301635.2,286047001.9,N,0.8
1505301655.0,286047001.7,N,0.7
1505301655.9,286047001.7,N,0.7
1505301675.8,286047001.4,N,0.6
1505301695.6,286047001.8,N,0.6
1505301715.4,286047001.8,Y,0.0
1505301735.3,286047002.7,P,0.5
1505301755.1,286047000.0,N,1.1
1505301775.9,286046999.9,N,1.2
1505301795.7,286047000.8,N,1.1
1505301815.5,286047001.0,N,1.0
1505301835.4,286047000.5,N,0.9
1505301855.2,286047000.5,N,0.9
1505301875.0,286047000.0,N,0.9
1505301875.9,286047000.0,N,0.8
1505301895.8,286047000.4,N,0.8
1505301915.6,286046999.7,N,0.8
1505301935.5,286047000.0,N,0.8
1505301955.3,286047000.5,N,0.8
1505301975.1,286047002.1,N,0.8
1505301995.9,286047002.3,N,0.9
1505302015.7,286047000.7,N,0.9
1505302035.6,286047000.7,N,0.9
1505302055.4,286047000.0,N,0.9
1505302075.2,286047000.7,N,0.8
1505302095.1,286046998.2,N,1.0
1505302096.0,286046998.2,N,1.1
1505302115.8,286047000.4,N,1.0
1505302135.7,286047000.7,N,1.0
1505302155.5,286047000.7,N,1.0
1505302175.3,286047000.9,N,1.0
1505302195.2,286047001.0,N,1.0
1505302215.0,286047000.6,N,1.0
1505302215.9,286047000.6,N,0.9
1505302235.8,286047000.6,N,0.9
1505302255.6,286047000.6,N,0.9
1505302275.4,286047000.1,N,0.8
1505302295.3,286047000.3,N,0.8
1505302315.1,286046999.8,N,0.8
1505302335.9,286047002.8,Y,0.0
1505302355.7,286047000.3,P,0.1
1505302375.5,286047000.4,P,0.1
1505302395.4,286047000.3,P,0.1
1505302415.2,286047000.2,Y,0.0
1505302435.0,286046999.9,P,0.2
1505302436.0,286046999.9,N,0.2
1505302455.8,286047000.7,P,0.3
1505302475.6,286047000.9,N,0.4
1505302495.5,286047000.9,N,0.4
1505302515.3,286047001.0,N,0.4
1505302535.1,286046999.9,N,0.5
1505302555.9,286047000.9,N,0.5
1505302575.7,286047000.5,N,0.4
1505302595.6,286047000.3,N,0.4
1505302615.4,286047000.6,N,0.4
1505302635.2,286046999.9,N,0.4
1505302655.1,286046999.9,N,0.4
1505302656.0,286046999.9,N,0.4
1505302675.8,286047000.6,N,0.4
1505302695.6,286047000.7,N,0.4
1505302715.5,286047000.2,N,0.4
1505302735.3,286047001.1,N,0.4
1505302755.2,286047000.0,N,0.4
1505302775.9,286046999.9,N,0.4
1505302795.7,286046999.9,N,0.4
1505302815.6,286047001.3,N,0.5
1505302835.4,286046999.8,N,0.5
1505302855.3,286047001.0,N,0.5
1505302875.1,286047000.0,N,0.5
1505302895.8,286046999.7,N,0.5
1505302915.7,286046999.7,N,0.5
1505302935.5,286046999.8,N,0.5
1505302955.4,286047002.6,Y,0.0
1505302975.2,286047001.8,P,0.7
1505302995.0,286047002.8,P,1.0
1505302995.9,286047002.8,N,1.0
1505303015.8,286046999.9,N,1.2
1505303035.6,286047002.5,N,1.2
1505303055.5,286047001.0,N,1.1
1505303075.3,286047000.3,N,1.1
1505303095.1,286046999.7,N,1.2
1505303115.9,286046999.9,N,1.2
1505303135.7,286047000.9,N,1.1
1505303155.6,286047000.1,N,1.1
1505303175.4,286046999.8,N,1.1
1505303195.2,286047000.3,N,1.1
1505303215.1,286047002.8,N,1.2
1505303216.0,286047002.8,N,1.2
1505303235.8,286047002.1,N,1.2
1505303255.7,286047002.1,N,1.2
1505303275.5,286047002.2,N,1.2
1505303295.3,286047002.0,N,1.2
1505303315.2,286047001.4,N,1.1
1505303335.0,286047002.1,N,1.1
1505303335.9,286047002.1,N,1.1
1505303355.7,286047002.6,N,1.1
1505303375.6,286047002.4,N,1.1
1505303395.4,286047000.2,N,1.1
1505303415.3,286047000.6,N,1.1
1505303435.1,286046999.8,N,1.1
1505303436.0,286046999.8,N,1.1
1505303455.8,286047002.3,N,1.1
1505303475.7,286046999.8,N,1.1
1505303495.5,286046999.7,N,1.2
1505303515.4,286046999.9,N,1.2
1505303535.2,286047002.8,N,1.2
1505303555.0,286047002.6,N,1.2
1505303555.9,286047002.6,N,1.2
1505303575.8,286046999.7,N,1.2
1505303595.6,286047001.6,N,1.2
1505303615.4,286047002.1,N,1.2
1505303635.3,286047001.8,N,1.1
1505303655.1,286047001.9,N,1.1
1505303675.9,286047001.5,N,1.1
1505303695.7,286047001.5,N,1.1
1505303715.5,286047002.1,N,1.1
1505303735.4,286047002.6,N,1.0
1505303755.2,286047002.5,N,1.0
1505303775.1,286047001.7,N,1.0
1505303776.0,286047001.7,N,1.0
1505303795.8,286047004.1,Y,0.0
1505303815.6,286047001.8,P,0.1
1505303835.5,286047001.3,P,0.2
1505303855.3,286047002.2,P,0.3
1505303875.2,286047002.3,Y,0.0
1505303895.9,286047000.3,P,0.7
1505303915.7,286047000.8,N,0.6
1505303935.6,286047000.0,N,0.6
1505303955.4,286047001.2,N,0.6
1505303975.2,286047001.0,N,0.6
1505303995.1,286047000.9,N,0.5
1505303996.0,286047000.9,N,0.5
